DIANT EDDN-EDDC

Flight info

Callsign DIANT
Flight time 1h 2m
Altitude 9000
Route ERETO1G ERETO Z715 ABKIS/N0177F080 Q240 DRN
Aircraft DA42/L-SBDGRY/S

Departure

Time 2026-05-08 15:29
Airport Nuremberg Airport (EDDN)

Arrival

Time 2026-05-08 16:31
Airport Dresden Airport (EDDC)
Time Latitude Longitude Altitude Speed Heading
2026-05-08 15:17 49.49413 11.06877 1015 ft 0 kts 280°
2026-05-08 15:22 49.49414 11.06875 1015 ft 2 kts 297°
2026-05-08 15:22 49.49459 11.06911 1019 ft 14 kts
2026-05-08 15:23 49.49520 11.07002 1019 ft 22 kts 98°
2026-05-08 15:23 49.49536 11.07196 1020 ft 17 kts
2026-05-08 15:23 49.49636 11.07260 1021 ft 13 kts 92°
2026-05-08 15:23 49.49623 11.07400 1022 ft 13 kts 96°
2026-05-08 15:24 49.49606 11.07571 1023 ft 17 kts 98°
2026-05-08 15:24 49.49605 11.07754 1025 ft 16 kts 38°
2026-05-08 15:24 49.49691 11.07754 1026 ft 7 kts 333°
2026-05-08 15:24 49.49706 11.07743 1027 ft 0 kts 333°
2026-05-08 15:25 49.49716 11.07735 1027 ft 9 kts 333°
2026-05-08 15:25 49.49754 11.07706 1027 ft 0 kts 332°
2026-05-08 15:25 49.49760 11.07701 1027 ft 5 kts 333°
2026-05-08 15:26 49.49783 11.07683 1026 ft 0 kts 332°
2026-05-08 15:26 49.49795 11.07674 1026 ft 11 kts 335°
2026-05-08 15:26 49.49868 11.07617 1026 ft 0 kts 329°
2026-05-08 15:26 49.49895 11.07550 1026 ft 5 kts 276°
2026-05-08 15:27 49.49895 11.07549 1026 ft 0 kts 277°
2026-05-08 15:28 49.49899 11.07500 1026 ft 26 kts 275°
2026-05-08 15:28 49.49956 11.06916 1037 ft 78 kts 276°
2026-05-08 15:28 49.50026 11.06070 1363 ft 76 kts 272°
2026-05-08 15:28 49.50031 11.05149 1505 ft 97 kts 266°
2026-05-08 15:29 49.49972 11.04081 1800 ft 100 kts 268°
2026-05-08 15:29 49.50179 11.03102 2175 ft 97 kts 296°
2026-05-08 15:29 49.50356 11.02100 2484 ft 99 kts 281°
2026-05-08 15:29 49.50493 11.01049 2796 ft 100 kts 279°
2026-05-08 15:30 49.50615 10.99991 3116 ft 101 kts 278°
2026-05-08 15:30 49.50728 10.98927 3425 ft 101 kts 278°
2026-05-08 15:30 49.50834 10.97892 3733 ft 100 kts 278°
2026-05-08 15:30 49.50943 10.96791 4003 ft 110 kts 279°
2026-05-08 15:31 49.51061 10.95601 4299 ft 113 kts 280°
2026-05-08 15:31 49.51178 10.94406 4627 ft 113 kts 279°
2026-05-08 15:31 49.51414 10.93267 4945 ft 113 kts 305°
2026-05-08 15:31 49.52040 10.92554 5248 ft 115 kts 342°
2026-05-08 15:32 49.52837 10.92470 5555 ft 116 kts
2026-05-08 15:32 49.53651 10.92488 5864 ft 117 kts
2026-05-08 15:32 49.54471 10.92512 6181 ft 118 kts
2026-05-08 15:32 49.55299 10.92536 6498 ft 120 kts
2026-05-08 15:33 49.56137 10.92560 6801 ft 120 kts
2026-05-08 15:33 49.56998 10.92585 6992 ft 134 kts
2026-05-08 15:33 49.58001 10.92616 7000 ft 153 kts
2026-05-08 15:33 49.59104 10.92647 7014 ft 164 kts
2026-05-08 15:34 49.60272 10.92678 7007 ft 170 kts
2026-05-08 15:34 49.61472 10.92708 7011 ft 174 kts
2026-05-08 15:34 49.62691 10.92741 7016 ft 176 kts
2026-05-08 15:34 49.63920 10.92773 7015 ft 177 kts
2026-05-08 15:35 49.65156 10.92805 7017 ft 178 kts
2026-05-08 15:35 49.66398 10.92836 7013 ft 179 kts
2026-05-08 15:35 49.67633 10.92869 7013 ft 181 kts
2026-05-08 15:35 49.68886 10.92900 7056 ft 179 kts 359°
2026-05-08 15:36 49.70043 10.93159 7466 ft 158 kts 18°
2026-05-08 15:36 49.70919 10.93921 8020 ft 133 kts 38°
2026-05-08 15:36 49.71591 10.94793 8440 ft 125 kts 38°
2026-05-08 15:36 49.72260 10.95663 8727 ft 127 kts 38°
2026-05-08 15:37 49.72932 10.96549 9052 ft 127 kts 38°
2026-05-08 15:37 49.73593 10.97424 9360 ft 129 kts 38°
2026-05-08 15:37 49.74272 10.98325 9711 ft 128 kts 38°
2026-05-08 15:37 49.74953 10.99224 10002 ft 132 kts 38°
2026-05-08 15:38 49.75708 11.00224 10016 ft 153 kts 38°
2026-05-08 15:38 49.76534 11.01323 10168 ft 157 kts 38°
2026-05-08 15:38 49.77364 11.02424 10374 ft 157 kts 38°
2026-05-08 15:38 49.78136 11.03449 10872 ft 135 kts 38°
2026-05-08 15:39 49.78831 11.04364 11235 ft 131 kts 37°
2026-05-08 15:39 49.79530 11.05287 11524 ft 133 kts 38°
2026-05-08 15:39 49.80232 11.06220 11828 ft 134 kts 38°
2026-05-08 15:39 49.80941 11.07161 12128 ft 134 kts 38°
2026-05-08 15:40 49.81652 11.08106 12429 ft 135 kts 37°
2026-05-08 15:40 49.82369 11.09059 12737 ft 136 kts 38°
2026-05-08 15:40 49.83082 11.10006 13044 ft 137 kts 38°
2026-05-08 15:40 49.83801 11.10990 13344 ft 139 kts 45°
2026-05-08 15:41 49.84293 11.12293 13648 ft 142 kts 63°
2026-05-08 15:41 49.84722 11.13673 13949 ft 143 kts 63°
2026-05-08 15:41 49.85154 11.15068 14219 ft 144 kts 63°
2026-05-08 15:41 49.85587 11.16468 14493 ft 144 kts 63°
2026-05-08 15:42 49.86022 11.17873 14769 ft 145 kts 62°
2026-05-08 15:42 49.86460 11.19288 15019 ft 150 kts 63°
2026-05-08 15:42 49.86940 11.20842 15029 ft 169 kts 63°
2026-05-08 15:42 49.87469 11.22559 15037 ft 183 kts 63°
2026-05-08 15:43 49.88032 11.24382 15039 ft 192 kts 63°
2026-05-08 15:43 49.88620 11.26283 15039 ft 197 kts 63°
2026-05-08 15:43 49.89219 11.28220 15040 ft 201 kts 63°
2026-05-08 15:43 49.89828 11.30188 15041 ft 203 kts 63°
2026-05-08 15:44 49.90439 11.32170 15038 ft 204 kts 63°
2026-05-08 15:44 49.91047 11.34140 15035 ft 206 kts 63°
2026-05-08 15:44 49.91671 11.36170 15035 ft 206 kts 63°
2026-05-08 15:44 49.92280 11.38152 15033 ft 206 kts 63°
2026-05-08 15:45 49.92904 11.40162 15034 ft 206 kts 60°
2026-05-08 15:45 49.93785 11.41893 15031 ft 204 kts 43°
2026-05-08 15:45 49.94787 11.43460 15039 ft 204 kts 43°
2026-05-08 15:45 49.95790 11.45024 15036 ft 204 kts 43°
2026-05-08 15:46 49.96793 11.46588 15036 ft 204 kts 43°
2026-05-08 15:46 49.97794 11.48154 15036 ft 204 kts 43°
2026-05-08 15:46 49.98796 11.49722 15036 ft 204 kts 43°
2026-05-08 15:46 49.99795 11.51288 15036 ft 204 kts 43°
2026-05-08 15:47 50.00795 11.52856 15039 ft 204 kts 43°
2026-05-08 15:47 50.01797 11.54425 15039 ft 204 kts 43°
2026-05-08 15:47 50.02797 11.55996 15042 ft 204 kts 43°
2026-05-08 15:47 50.03795 11.57564 15038 ft 204 kts 43°
2026-05-08 15:48 50.05794 11.60704 15042 ft 204 kts 43°
2026-05-08 15:48 50.06791 11.62273 15049 ft 203 kts 43°
2026-05-08 15:48 50.07759 11.63888 15046 ft 205 kts 46°
2026-05-08 15:49 50.08735 11.65496 15048 ft 204 kts 43°
2026-05-08 15:49 50.09721 11.67094 15050 ft 205 kts 44°
2026-05-08 15:49 50.10697 11.68708 15052 ft 205 kts 44°
2026-05-08 15:49 50.11671 11.70327 15052 ft 205 kts 44°
2026-05-08 15:50 50.12642 11.71946 15049 ft 204 kts 44°
2026-05-08 15:50 50.13617 11.73567 15052 ft 205 kts 44°
2026-05-08 15:50 50.14591 11.75191 15049 ft 205 kts 44°
2026-05-08 15:50 50.15566 11.76814 15051 ft 205 kts 44°
2026-05-08 15:51 50.16539 11.78436 15054 ft 205 kts 44°
2026-05-08 15:51 50.17511 11.80059 15054 ft 205 kts 44°
2026-05-08 15:51 50.18483 11.81680 15053 ft 205 kts 44°
2026-05-08 15:51 50.19311 11.83495 15051 ft 206 kts 57°
2026-05-08 15:52 50.20053 11.85377 15053 ft 206 kts 56°
2026-05-08 15:52 50.20806 11.87285 15053 ft 206 kts 56°
2026-05-08 15:52 50.21558 11.89194 15052 ft 206 kts 57°
2026-05-08 15:52 50.22309 11.91105 15052 ft 206 kts 57°
2026-05-08 15:53 50.23061 11.93016 15050 ft 206 kts 56°
2026-05-08 15:53 50.23813 11.94926 15050 ft 206 kts 57°
2026-05-08 15:53 50.24564 11.96839 15049 ft 207 kts 57°
2026-05-08 15:53 50.25315 11.98756 15050 ft 207 kts 57°
2026-05-08 15:54 50.26068 12.00676 15056 ft 207 kts 56°
2026-05-08 15:54 50.26861 12.02547 15056 ft 207 kts 52°
2026-05-08 15:54 50.27675 12.04398 15094 ft 204 kts 54°
2026-05-08 15:54 50.28468 12.06231 15124 ft 204 kts 53°
2026-05-08 15:55 50.29270 12.08063 15122 ft 205 kts 53°
2026-05-08 15:55 50.30885 12.11741 15123 ft 205 kts 53°
2026-05-08 15:55 50.31693 12.13584 15124 ft 205 kts 53°
2026-05-08 15:56 50.32502 12.15429 15125 ft 206 kts 53°
2026-05-08 15:56 50.33300 12.17254 15126 ft 206 kts 53°
2026-05-08 15:56 50.34107 12.19101 15133 ft 206 kts 53°
2026-05-08 15:56 50.34841 12.21029 15134 ft 206 kts 60°
2026-05-08 15:57 50.35512 12.23015 15138 ft 207 kts 60°
2026-05-08 15:57 50.36186 12.25004 15138 ft 207 kts 60°
2026-05-08 15:57 50.36859 12.26999 15130 ft 207 kts 60°
2026-05-08 15:57 50.37530 12.28994 15130 ft 207 kts 60°
2026-05-08 15:58 50.38201 12.30988 15131 ft 207 kts 60°
2026-05-08 15:58 50.38872 12.32982 15130 ft 207 kts 60°
2026-05-08 15:58 50.39542 12.34979 15131 ft 207 kts 60°
2026-05-08 15:58 50.40203 12.36950 15130 ft 207 kts 60°
2026-05-08 15:59 50.40871 12.38942 15135 ft 207 kts 60°
2026-05-08 15:59 50.41541 12.40936 15136 ft 206 kts 60°
2026-05-08 15:59 50.42209 12.42931 15136 ft 207 kts 60°
2026-05-08 15:59 50.42877 12.44926 15136 ft 207 kts 60°
2026-05-08 16:00 50.43545 12.46923 15138 ft 207 kts 60°
2026-05-08 16:00 50.44212 12.48920 15138 ft 207 kts 60°
2026-05-08 16:00 50.44879 12.50919 15135 ft 207 kts 60°
2026-05-08 16:00 50.45546 12.52919 15136 ft 207 kts 60°
2026-05-08 16:01 50.46214 12.54926 15137 ft 207 kts 60°
2026-05-08 16:01 50.46884 12.56935 15137 ft 208 kts 60°
2026-05-08 16:01 50.47555 12.58950 15145 ft 208 kts 60°
2026-05-08 16:01 50.48225 12.60964 15141 ft 208 kts 60°
2026-05-08 16:02 50.48891 12.62972 15141 ft 207 kts 60°
2026-05-08 16:02 50.49556 12.64971 15141 ft 207 kts 60°
2026-05-08 16:02 50.50219 12.66972 15141 ft 206 kts 60°
2026-05-08 16:02 50.50883 12.68975 15141 ft 207 kts 60°
2026-05-08 16:03 50.51546 12.70975 15141 ft 206 kts 60°
2026-05-08 16:03 50.52207 12.72976 15135 ft 206 kts 60°
2026-05-08 16:03 50.52870 12.74977 15135 ft 206 kts 60°
2026-05-08 16:03 50.53530 12.76975 15136 ft 206 kts 60°
2026-05-08 16:04 50.54189 12.78975 15133 ft 206 kts 60°
2026-05-08 16:04 50.54849 12.80975 15134 ft 206 kts 60°
2026-05-08 16:04 50.55509 12.82978 15133 ft 206 kts 60°
2026-05-08 16:04 50.56168 12.84976 15134 ft 206 kts 60°
2026-05-08 16:05 50.56826 12.86976 15135 ft 206 kts 60°
2026-05-08 16:05 50.57484 12.88976 15136 ft 206 kts 60°
2026-05-08 16:05 50.58142 12.90978 15135 ft 206 kts 60°
2026-05-08 16:05 50.58799 12.92979 15136 ft 206 kts 60°
2026-05-08 16:06 50.59456 12.94982 15138 ft 206 kts 61°
2026-05-08 16:06 50.60112 12.96984 15139 ft 206 kts 61°
2026-05-08 16:06 50.60767 12.98985 15120 ft 202 kts 61°
2026-05-08 16:06 50.61412 13.00971 14329 ft 213 kts 61°
2026-05-08 16:07 50.62121 13.03088 13351 ft 224 kts 57°
2026-05-08 16:07 50.63114 13.04904 12614 ft 215 kts 38°
2026-05-08 16:07 50.64367 13.06107 11864 ft 208 kts 20°
2026-05-08 16:07 50.65737 13.06705 11203 ft 200 kts
2026-05-08 16:08 50.66998 13.07151 11026 ft 175 kts
2026-05-08 16:08 50.68131 13.07549 10809 ft 160 kts
2026-05-08 16:08 50.69182 13.07917 10604 ft 149 kts
2026-05-08 16:08 50.70166 13.08264 10420 ft 143 kts
2026-05-08 16:09 50.71185 13.08614 10221 ft 157 kts
2026-05-08 16:09 50.71925 13.08873 10074 ft 164 kts
2026-05-08 16:09 50.73441 13.09414 9766 ft 172 kts 10°
2026-05-08 16:09 50.74619 13.09831 9534 ft 176 kts 10°
2026-05-08 16:10 50.75412 13.10118 9378 ft 177 kts 10°
2026-05-08 16:10 50.76621 13.10551 9142 ft 179 kts
2026-05-08 16:10 50.77833 13.10980 8978 ft 177 kts
2026-05-08 16:10 50.79410 13.11540 8771 ft 175 kts 10°
2026-05-08 16:11 50.80592 13.11960 8610 ft 173 kts 10°
2026-05-08 16:11 50.81383 13.12241 8504 ft 172 kts
2026-05-08 16:11 50.82553 13.12658 8347 ft 172 kts
2026-05-08 16:11 50.83721 13.13073 8191 ft 172 kts 10°
2026-05-08 16:12 50.84914 13.13494 8030 ft 181 kts 10°
2026-05-08 16:12 50.86170 13.13941 7860 ft 188 kts 10°
2026-05-08 16:12 50.87457 13.14403 7686 ft 191 kts 11°
2026-05-08 16:12 50.88747 13.14866 7520 ft 194 kts 10°
2026-05-08 16:13 50.90067 13.15338 7339 ft 195 kts 10°
2026-05-08 16:13 50.91397 13.15812 7160 ft 196 kts 11°
2026-05-08 16:13 50.92736 13.16290 6980 ft 197 kts 11°
2026-05-08 16:13 50.94072 13.16769 6800 ft 197 kts 11°
2026-05-08 16:14 50.95412 13.17249 6620 ft 197 kts 11°
2026-05-08 16:14 50.96751 13.17728 6433 ft 198 kts 11°
2026-05-08 16:14 50.98092 13.18207 6250 ft 198 kts 11°
2026-05-08 16:14 50.99432 13.18688 6067 ft 197 kts 11°
2026-05-08 16:15 51.00769 13.19168 5887 ft 197 kts 11°
2026-05-08 16:15 51.02112 13.19653 5707 ft 199 kts 10°
2026-05-08 16:15 51.03470 13.20137 5521 ft 201 kts 11°
2026-05-08 16:15 51.04824 13.20638 5333 ft 199 kts 15°
2026-05-08 16:16 51.06040 13.21652 5174 ft 198 kts 38°
2026-05-08 16:16 51.06918 13.23232 5165 ft 186 kts 58°
2026-05-08 16:16 51.07466 13.25020 5162 ft 179 kts 65°
2026-05-08 16:16 51.07993 13.26812 5161 ft 175 kts 65°
2026-05-08 16:17 51.08495 13.28534 5159 ft 173 kts 65°
2026-05-08 16:17 51.08998 13.30267 5159 ft 172 kts 65°
2026-05-08 16:17 51.09497 13.31989 5157 ft 170 kts 65°
2026-05-08 16:17 51.09974 13.33639 5153 ft 159 kts 65°
2026-05-08 16:18 51.10409 13.35227 5096 ft 157 kts 73°
2026-05-08 16:18 51.10451 13.36946 5002 ft 156 kts 102°
2026-05-08 16:18 51.09998 13.38470 4999 ft 151 kts 127°
2026-05-08 16:18 51.09373 13.39795 4998 ft 148 kts 127°
2026-05-08 16:19 51.08755 13.41098 4997 ft 147 kts 127°
2026-05-08 16:19 51.08135 13.42401 4999 ft 151 kts 127°
2026-05-08 16:19 51.07387 13.43635 4998 ft 161 kts 148°
2026-05-08 16:19 51.06311 13.44172 4997 ft 166 kts 177°
2026-05-08 16:20 51.05184 13.43771 4995 ft 169 kts 207°
2026-05-08 16:20 51.04250 13.42623 4996 ft 171 kts 220°
2026-05-08 16:20 51.03349 13.41389 4996 ft 172 kts 221°
2026-05-08 16:20 51.02444 13.40152 4998 ft 172 kts 222°
2026-05-08 16:21 51.01534 13.38911 4999 ft 173 kts 221°
2026-05-08 16:21 51.00621 13.37668 4997 ft 173 kts 221°
2026-05-08 16:21 50.99708 13.36432 4997 ft 172 kts 222°
2026-05-08 16:21 50.98797 13.35196 4996 ft 172 kts 222°
2026-05-08 16:22 50.97800 13.34157 4993 ft 173 kts 202°
2026-05-08 16:22 50.96614 13.33840 4961 ft 176 kts 179°
2026-05-08 16:22 50.95419 13.34347 4848 ft 182 kts 153°
2026-05-08 16:22 50.94446 13.35636 4708 ft 185 kts 131°
2026-05-08 16:23 50.93612 13.37174 4565 ft 187 kts 130°
2026-05-08 16:23 50.92768 13.38741 4423 ft 187 kts 130°
2026-05-08 16:23 50.91921 13.40310 4278 ft 187 kts 130°
2026-05-08 16:23 50.91237 13.42046 4131 ft 186 kts 110°
2026-05-08 16:24 50.91037 13.44053 3997 ft 184 kts 86°
2026-05-08 16:24 50.91334 13.45971 3994 ft 177 kts 64°
2026-05-08 16:24 50.92037 13.47519 3992 ft 172 kts 43°
2026-05-08 16:24 50.92934 13.48747 3991 ft 169 kts 40°
2026-05-08 16:25 50.93875 13.49845 3987 ft 168 kts 22°
2026-05-08 16:25 50.95025 13.49938 3990 ft 167 kts 353°
2026-05-08 16:25 50.96143 13.50161 4090 ft 162 kts 24°
2026-05-08 16:25 50.97045 13.51170 4153 ft 163 kts 41°
2026-05-08 16:26 50.97560 13.52788 4034 ft 174 kts 82°
2026-05-08 16:26 50.97648 13.54706 3992 ft 174 kts 75°
2026-05-08 16:26 50.98297 13.56263 3985 ft 171 kts 38°
2026-05-08 16:26 50.99237 13.57395 3986 ft 169 kts 37°
2026-05-08 16:27 51.00144 13.58581 3952 ft 170 kts 39°
2026-05-08 16:27 51.01067 13.59816 3779 ft 177 kts 40°
2026-05-08 16:27 51.02013 13.61118 3542 ft 183 kts 41°
2026-05-08 16:27 51.02981 13.62452 3290 ft 185 kts 41°
2026-05-08 16:28 51.03960 13.63788 3033 ft 186 kts 41°
2026-05-08 16:28 51.04905 13.65084 2784 ft 165 kts 41°
2026-05-08 16:28 51.05717 13.66197 2576 ft 147 kts 41°
2026-05-08 16:28 51.06481 13.67242 2378 ft 144 kts 41°
2026-05-08 16:29 51.07239 13.68281 2180 ft 144 kts 41°
2026-05-08 16:29 51.07993 13.69322 1983 ft 144 kts 41°
2026-05-08 16:29 51.08747 13.70356 1780 ft 143 kts 41°
2026-05-08 16:29 51.09494 13.71383 1578 ft 141 kts 41°
2026-05-08 16:30 51.10231 13.72395 1380 ft 139 kts 41°
2026-05-08 16:30 51.10948 13.73384 1197 ft 127 kts 42°
2026-05-08 16:30 51.11532 13.74192 1045 ft 102 kts 41°
2026-05-08 16:30 51.12056 13.74908 940 ft 94 kts 42°
2026-05-08 16:31 51.12493 13.75504 780 ft 75 kts 41°
2026-05-08 16:31 51.12859 13.76007 747 ft 65 kts 40°
2026-05-08 16:31 51.13242 13.76535 739 ft 72 kts 40°
2026-05-08 16:31 51.13483 13.76874 728 ft 40 kts 34°
2026-05-08 16:32 51.13768 13.77259 724 ft 62 kts 41°
2026-05-08 16:32 51.13888 13.77533 718 ft 24 kts 130°
2026-05-08 16:32 51.13833 13.77637 719 ft 0 kts 129°
2026-05-08 16:34 51.13825 13.77651 716 ft 12 kts 131°
2026-05-08 16:34 51.13714 13.77664 713 ft 26 kts 221°
2026-05-08 16:34 51.13554 13.77444 720 ft 34 kts 220°
2026-05-08 16:34 51.13368 13.77187 726 ft 37 kts 220°
2026-05-08 16:35 51.13172 13.76916 735 ft 35 kts 223°
2026-05-08 16:35 51.13005 13.76686 742 ft 30 kts 221°
2026-05-08 16:35 51.12846 13.76468 744 ft 30 kts 220°
2026-05-08 16:35 51.12690 13.76253 747 ft 29 kts 221°
2026-05-08 16:36 51.12538 13.76045 753 ft 31 kts 219°
2026-05-08 16:36 51.12446 13.75917 758 ft 0 kts 219°
2026-05-08 16:36 51.12387 13.76017 753 ft 21 kts 134°
2026-05-08 16:36 51.12317 13.76032 757 ft 4 kts 168°